Back to catalog

HULIANWANG DIGUI-24

AliveCommunicationsPO
NORAD 63691·PAYLOAD·🇨🇳 China

Launched Apr 28, 2025 from Wenchang Space Launch Site

Loading…

Next Passes (next 24 hours)

TLE

FreshSource: Space-Track

Epoch: Sep 14, 2026, 14:05 UTC

1 63691U 25086E   26257.58716279  .00000022  00000-0  17367-4 0  9995
2 63691  86.5033 283.1898 0002040  80.5087 279.6277 13.24414158 66695

Track HULIANWANG DIGUI-24 in real time with AllMySat

Download on the App Store